H1 CPF 2 NER 2021 7 27 9 208 01 glonass105 H2 0705202 9105 32276 2021 7 27 0 0 0 2021 7 30 23 45 0 900 1 1 0 0 0 1 H9 10 0 59422 0.00000 0 6072496.301 24212605.231 5158085.785 10 0 59422 900.00000 0 5973492.031 23359675.279 8271185.162 10 0 59422 1800.00000 0 5650145.302 22179681.942 11223274.794 10 0 59422 2700.00000 0 5067665.040 20722397.496 13956925.897 10 0 59422 3600.00000 0 4202269.614 19045664.140 16418992.068 10 0 59422 4500.00000 0 3042444.221 17212976.513 18561645.341 10 0 59422 5400.00000 0 1589679.013 15290847.961 20343304.973 10 0 59422 6300.00000 0 -141343.842 13346071.812 21729441.123 10 0 59422 7200.00000 0 -2123122.243 11442993.040 22693238.252 10 0 59422 8100.00000 0 -4316249.985 9640904.520 23216106.279 10 0 59422 9000.00000 0 -6670838.207 7991676.335 23288030.528 10 0 59422 9900.00000 0 -9128383.167 6537716.348 22907754.725 10 0 59422 10800.00000 0 -11624002.775 5310345.863 22082794.507 10 0 59422 11700.00000 0 -14088949.090 4328656.605 20829282.011 10 0 59422 12600.00000 0 -16453292.682 3598894.999 19171645.183 10 0 59422 13500.00000 0 -18648667.869 3114397.622 17142128.434 10 0 59422 14400.00000 0 -20610965.395 2856078.757 14780164.031 10 0 59422 15300.00000 0 -22282861.284 2793448.080 12131606.402 10 0 59422 16200.00000 0 -23616077.455 2886114.468 9247843.967 10 0 59422 17100.00000 0 -24573280.790 3085711.755 6184805.357 10 0 59422 18000.00000 0 -25129542.167 3338164.777 3001878.995 10 0 59422 18900.00000 0 -25273295.306 3586199.869 -239233.398 10 0 59422 19800.00000 0 -25006755.918 3771993.799 -3475707.557 10 0 59422 20700.00000 0 -24345784.034 3839849.409 -6644808.809 10 0 59422 21600.00000 0 -23319195.505 3738785.024 -9685102.471 10 0 59422 22500.00000 0 -21967551.528 3424928.362 -12537639.397 10 0 59422 23400.00000 0 -20341476.680 2863613.759 -15147093.929 10 0 59422 24300.00000 0 -18499575.494 2031093.878 -17462832.646 10 0 59422 25200.00000 0 -16506034.172 915793.054 -19439893.577 10 0 59422 26100.00000 0 -14428007.067 -480951.489 -21039857.256 10 0 59422 27000.00000 0 -12332896.408 -2144693.152 -22231593.076 10 0 59422 27900.00000 0 -10285638.039 -4048234.241 -22991866.715 10 0 59422 28800.00000 0 -8346105.878 -6152525.943 -23305796.847 10 0 59422 29700.00000 0 -6566742.744 -8408074.524 -23167152.108 10 0 59422 30600.00000 0 -4990515.995 -10756797.131 -22578482.117 10 0 59422 31500.00000 0 -3649283.082 -13134251.568 -21551079.276 10 0 59422 32400.00000 0 -2562635.172 -15472148.688 -20104771.199 10 0 59422 33300.00000 0 -1737267.160 -17701043.746 -18267546.719 10 0 59422 34200.00000 0 -1166900.571 -19753095.023 -16075021.666 10 0 59422 35100.00000 0 -832762.519 -21564774.699 -13569753.798 10 0 59422 36000.00000 0 -704600.502 -23079418.373 -10800419.370 10 0 59422 36900.00000 0 -742190.001 -24249505.821 -7820866.931 10 0 59422 37800.00000 0 -897270.690 -25038576.559 -4689066.642 10 0 59422 38700.00000 0 -1115828.582 -25422698.920 -1465975.849 10 0 59422 39600.00000 0 -1340626.470 -25391430.083 1785656.223 10 0 59422 40500.00000 0 -1513874.107 -24948226.137 5002520.385 10 0 59422 41400.00000 0 -1579923.499 -24110284.714 8121990.846 10 0 59422 42300.00000 0 -1487873.582 -22907826.951 11083354.426 10 0 59422 43200.00000 0 -1193972.455 -21382849.557 13829000.565 10 0 59422 44100.00000 0 -663714.189 -19587400.245 16305548.040 10 0 59422 45000.00000 0 126459.499 -17581450.021 18464885.753 10 0 59422 45900.00000 0 1187925.349 -15430452.614 20265107.178 10 0 59422 46800.00000 0 2519164.998 -13202694.191 21671320.479 10 0 59422 47700.00000 0 4105602.056 -10966544.953 22656319.058 10 0 59422 48600.00000 0 5919996.829 -8787727.670 23201100.352 10 0 59422 49500.00000 0 7923382.253 -6726716.934 23295223.822 10 0 59422 50400.00000 0 10066501.902 -4836376.977 22937002.203 10 0 59422 51300.00000 0 12291690.144 -3159935.325 22133523.346 10 0 59422 52200.00000 0 14535116.282 -1729375.216 20900503.045 10 0 59422 53100.00000 0 16729299.408 -564312.068 19261972.363 10 0 59422 54000.00000 0 18805789.697 328601.126 17249805.907 10 0 59422 54900.00000 0 20697905.061 955716.563 14903100.321 10 0 59422 55800.00000 0 22343409.709 1335882.613 12267415.031 10 0 59422 56700.00000 0 23687023.690 1499405.950 9393889.735 10 0 59422 57600.00000 0 24682659.409 1486529.751 6338255.392 10 0 59422 58500.00000 0 25295292.334 1345492.862 3159757.591 10 0 59422 59400.00000 0 25502388.295 1130252.343 -79987.206 10 0 59422 60300.00000 0 25294828.103 897965.714 -3318180.799 10 0 59422 61200.00000 0 24677291.033 706339.247 -6492054.893 10 0 59422 62100.00000 0 23668081.209 610954.233 -9540082.173 10 0 59422 63000.00000 0 22298403.990 662684.037 -12403163.652 10 0 59422 63900.00000 0 20611122.350 905310.981 -15025769.531 10 0 59422 64800.00000 0 18659044.698 1373443.776 -17357011.909 10 0 59422 65700.00000 0 16502815.022 2090823.721 -19351628.907 10 0 59422 66600.00000 0 14208492.709 3069091.740 -20970861.493 10 0 59422 67500.00000 0 11844922.104 4307069.218 -22183206.345 10 0 59422 68400.00000 0 9481000.615 5790584.305 -22965030.397 10 0 59422 69300.00000 0 7182958.363 7492852.690 -23301035.146 10 0 59422 70200.00000 0 5011761.985 9375398.870 -23184561.581 10 0 59422 71100.00000 0 3020750.024 11389481.384 -22617729.357 10 0 59422 72000.00000 0 1253598.112 13477964.332 -21611406.855 10 0 59422 72900.00000 0 -257301.557 15577558.698 -20185011.794 10 0 59422 73800.00000 0 -1491979.002 17621341.186 -18366145.209 10 0 59422 74700.00000 0 -2443495.877 19541446.091 -16190064.859 10 0 59422 75600.00000 0 -3118000.163 21271818.047 -13699007.238 10 0 59422 76500.00000 0 -3534223.996 22750910.258 -10941370.575 10 0 59422 77400.00000 0 -3722446.055 23924214.517 -7970774.235 10 0 59422 78300.00000 0 -3722962.798 24746516.011 -4845012.679 10 0 59422 79200.00000 0 -3584133.904 25183777.116 -1624924.626 10 0 59422 80100.00000 0 -3360085.617 25214569.891 1626799.833 10 0 59422 81000.00000 0 -3108170.530 24830996.107 4846849.939 10 0 59422 81900.00000 0 -2886292.891 24039055.427 7972537.663 10 0 59422 82800.00000 0 -2750214.291 22858445.965 10943028.206 10 0 59422 83700.00000 0 -2750955.366 21321805.721 13700532.490 10 0 59422 84600.00000 0 -2932404.929 19473427.194 16191437.508 10 0 59422 85500.00000 0 -3329238.709 17367499.902 18367351.781 10 0 59423 0.00000 0 -3965236.445 15065955.328 20186045.395 10 0 59423 900.00000 0 -4852069.304 12636005.224 21612266.666 10 0 59423 1800.00000 0 -5988607.626 10147477.049 22618419.603 10 0 59423 2700.00000 0 -7360780.357 7670058.120 23185090.417 10 0 59423 3600.00000 0 -8941989.812 5270562.941 23301413.488 10 0 59423 4500.00000 0 -10694065.698 3010337.567 22965270.820 10 0 59423 5400.00000 0 -12568717.841 942907.760 22183322.164 10 0 59423 6300.00000 0 -14509427.109 -888032.467 20970866.055 10 0 59423 7200.00000 0 -16453695.641 -2450209.850 19351535.146 10 0 59423 8100.00000 0 -18335562.790 -3723874.169 17356832.119 10 0 59423 9000.00000 0 -20088282.210 -4702369.926 15025515.329 10 0 59423 9900.00000 0 -21647048.797 -5392155.418 12402846.078 10 0 59423 10800.00000 0 -22951662.220 -5812270.321 9539711.863 10 0 59423 11700.00000 0 -23949016.297 -5993275.648 6491642.257 10 0 59423 12600.00000 0 -24595310.657 -5975711.831 3317736.196 10 0 59423 13500.00000 0 -24857892.557 -5808140.722 79521.053 10 0 59423 14400.00000 0 -24716652.059 -5544854.540 -3160234.757 10 0 59423 15300.00000 0 -24164912.238 -5243348.664 -6338732.879 10 0 59423 16200.00000 0 -23209777.061 -4961664.954 -9394356.697 10 0 59423 17100.00000 0 -21871922.062 -4755717.704 -12267860.436 10 0 59423 18000.00000 0 -20184836.090 -4676714.985 -14903512.895 10 0 59423 18900.00000 0 -18193545.152 -4768784.157 -17250174.030 10 0 59423 19800.00000 0 -15952870.779 -5066901.872 -19262283.944 10 0 59423 20700.00000 0 -13525294.696 -5595216.123 -20900745.398 10 0 59423 21600.00000 0 -10978517.740 -6365831.720 -22133683.132 10 0 59423 22500.00000 0 -8382813.603 -7378111.304 -22937065.505 10 0 59423 23400.00000 0 -5808286.597 -8618522.598 -23295176.411 10 0 59423 24300.00000 0 -3322146.536 -10061039.970 -23200928.196 10 0 59423 25200.00000 0 -986113.278 -11668085.285 -22656009.082 10 0 59423 26100.00000 0 1145941.625 -13391970.457 -21670861.543 10 0 59423 27000.00000 0 3030018.448 -15176783.009 -20264491.190 10 0 59423 27900.00000 0 4633593.945 -16960637.197 -18464108.809 10 0 59423 28800.00000 0 5936740.232 -18678197.392 -16304611.434 10 0 59423 29700.00000 0 6932711.281 -20263368.627 -13827911.523 10 0 59423 30600.00000 0 7627972.609 -21652041.511 -11082126.426 10 0 59423 31500.00000 0 8041673.145 -22784775.850 -8120643.435 10 0 59423 32400.00000 0 8204582.038 -23609309.391 -5001078.449 10 0 59423 33300.00000 0 8157535.947 -24082785.092 -1784148.763 10 0 59423 34200.00000 0 7949463.355 -24173601.907 1467517.347 10 0 59423 35100.00000 0 7635070.742 -23862809.960 4690610.082 10 0 59423 36000.00000 0 7272289.999 -23144990.378 7822381.519 10 0 59423 36900.00000 0 6919596.688 -22028581.971 10801877.363 10 0 59423 37800.00000 0 6633314.271 -20535640.738 13571131.897 10 0 59423 38700.00000 0 6465019.829 -18701042.276 16076301.941 10 0 59423 39600.00000 0 6459162.184 -16571160.978 18268716.967 10 0 59423 40500.00000 0 6650993.916 -14202081.944 20105824.764 10 0 59423 41400.00000 0 7064905.142 -11657421.054 21552014.398 10 0 59423 42300.00000 0 7713229.429 -9005844.951 22579300.928 10 0 59423 43200.00000 0 8595572.095 -6318394.727 23167859.449 10 0 59423 44100.00000 0 9698688.864 -3665724.868 23306399.067 10 0 59423 45000.00000 0 10996919.652 -1115372.068 22992370.596 10 0 59423 45900.00000 0 12453158.995 1270833.268 22232004.996 10 0 59423 46800.00000 0 14020322.264 3439106.466 21040182.661 10 0 59423 47700.00000 0 15643246.214 5345703.115 19440136.763 10 0 59423 48600.00000 0 17260944.430 6958487.580 17462996.828 10 0 59423 49500.00000 0 18809123.627 8258012.134 15147181.530 10 0 59423 50400.00000 0 20222855.832 9238063.647 12537652.470 10 0 59423 51300.00000 0 21439295.135 9905656.938 9685043.185 10 0 59423 52200.00000 0 22400325.751 10280476.824 6644679.904 10 0 59423 53100.00000 0 23055030.883 10393793.653 3475512.746 10 0 59423 54000.00000 0 23361879.331 10286899.077 238977.676 10 0 59423 54900.00000 0 23290538.370 10009128.613 -3002189.132 10 0 59423 55800.00000 0 22823236.936 9615554.788 -6185161.774 10 0 59423 56700.00000 0 21955621.796 9164448.288 -9248236.820 10 0 59423 57600.00000 0 20697070.397 8714614.206 -12132024.102 10 0 59423 58500.00000 0 19070446.679 8322715.618 -14780593.252 10 0 59423 59400.00000 0 17111309.193 8040697.231 -17142554.142 10 0 59423 60300.00000 0 14866603.571 7913417.635 -19172050.709 10 0 59423 61200.00000 0 12392892.772 7976590.025 -20829649.188 10 0 59423 62100.00000 0 9754197.599 8255118.385 -22083103.905 10 0 59423 63000.00000 0 7019536.081 8761899.781 -22907986.019 10 0 59423 63900.00000 0 4260262.914 9497143.997 -23288163.032 10 0 59423 64800.00000 0 1547318.365 10448240.332 -23216119.655 10 0 59423 65700.00000 0 -1051500.009 11590178.596 -22693113.411 10 0 59423 66600.00000 0 -3474130.161 12886508.224 -21729161.268 10 0 59423 67500.00000 0 -5666595.640 14290796.835 -20342856.730 10 0 59423 68400.00000 0 -7585015.520 15748528.541 -18561019.887 10 0 59423 69300.00000 0 -9197190.541 17199363.410 -16418186.152 10 0 59423 70200.00000 0 -10483699.340 18579664.032 -13955942.593 10 0 59423 71100.00000 0 -11438459.038 19825183.244 -11222123.908 10 0 59423 72000.00000 0 -12068726.791 20873799.781 -8269883.167 10 0 59423 72900.00000 0 -12394542.607 21668185.993 -5156655.235 10 0 59423 73800.00000 0 -12447637.487 22158294.248 -1943033.233 10 0 59423 74700.00000 0 -12269853.753 22303555.880 1308419.329 10 0 59423 75600.00000 0 -11911145.455 22074698.663 4534396.719 10 0 59423 76500.00000 0 -11427244.752 21455104.885 7672094.310 10 0 59423 77400.00000 0 -10877094.507 20441651.720 10660441.527 10 0 59423 78300.00000 0 -10320157.294 19044997.799 13441299.200 10 0 59423 79200.00000 0 -9813716.115 17289303.501 15960597.059 10 0 59423 80100.00000 0 -9410282.201 15211396.712 18169388.454 10 0 59423 81000.00000 0 -9155220.321 12859419.260 20024801.554 10 0 59423 81900.00000 0 -9084692.402 10291011.070 21490868.670 10 0 59423 82800.00000 0 -9224006.301 7571108.380 22539218.009 10 0 59423 83700.00000 0 -9586439.073 4769448.219 23149615.273 10 0 59423 84600.00000 0 -10172583.849 1957883.105 23310345.592 10 0 59423 85500.00000 0 -10970247.121 -792382.410 23018429.395 10 0 59424 0.00000 0 -11954900.131 -3413519.155 22279669.143 10 0 59424 900.00000 0 -13090665.106 -5843652.332 21108526.724 10 0 59424 1800.00000 0 -14331793.914 -8029186.493 19527834.949 10 0 59424 2700.00000 0 -15624577.937 -9926780.688 17568348.676 10 0 59424 3600.00000 0 -16909608.205 -11504894.688 15268144.826 10 0 59424 4500.00000 0 -18124291.716 -12744842.623 12671882.731 10 0 59424 5400.00000 0 -19205518.562 -13641312.580 9829938.960 10 0 59424 6300.00000 0 -20092368.397 -14202332.033 6797433.064 10 0 59424 7200.00000 0 -20728743.070 -14448682.096 3633162.782 10 0 59424 8100.00000 0 -21065815.207 -14412786.459 398468.960 10 0 59424 9000.00000 0 -21064190.149 -14137122.637 -2843948.235 10 0 59424 9900.00000 0 -20695690.468 -13672222.974 -6031239.084 10 0 59424 10800.00000 0 -19944687.960 -13074349.898 -9101616.996 10 0 59424 11700.00000 0 -18808926.732 -12402943.472 -11995550.910 10 0 59424 12600.00000 0 -17299802.215 -11717948.657 -14656914.555 10 0 59424 13500.00000 0 -15442083.414 -11077134.740 -17034070.671 10 0 59424 14400.00000 0 -13273088.850 -10533519.613 -19080869.577 10 0 59424 15300.00000 0 -10841349.245 -10133007.190 -20757543.025 10 0 59424 16200.00000 0 -8204811.285 -9912337.399 -22031476.384 10 0 59424 17100.00000 0 -5428655.667 -9897435.168 -22877844.429 10 0 59424 18000.00000 0 -2582818.816 -10102228.276 -23280098.428 10 0 59424 18900.00000 0 260680.156 -10527984.496 -23230295.002 10 0 59424 19800.00000 0 3030497.450 -11163196.868 -22729259.938 10 0 59424 20700.00000 0 5658693.846 -11984023.151 -21786583.181 10 0 59424 21600.00000 0 8083322.609 -12955262.247 -20420444.209 10 0 59424 22500.00000 0 10250768.843 -14031827.916 -18657270.155 10 0 59424 23400.00000 0 12117743.058 -15160658.859 -16531232.268 10 0 59424 24300.00000 0 13652845.892 -16282985.702 -14083589.436 10 0 59424 25200.00000 0 14837638.584 -17336859.813 -11361890.700 10 0 59424 26100.00000 0 15667174.359 -18259837.388 -8419051.726 10 0 59424 27000.00000 0 16149968.582 -18991705.104 -5312323.027 10 0 59424 27900.00000 0 16307409.322 -19477131.420 -2102170.185 10 0 59424 28800.00000 0 16172633.739 -19668130.370 1148911.414 10 0 59424 29700.00000 0 15788918.685 -19526232.406 4377623.322 10 0 59424 30600.00000 0 15207654.666 -19024269.211 7521107.224 10 0 59424 31500.00000 0 14485990.223 -18147695.869 10518178.971 10 0 59424 32400.00000 0 13684247.812 -16895393.587 13310528.271 10 0 59424 33300.00000 0 12863221.890 -15279918.380 15843859.679 10 0 59424 34200.00000 0 12081474.672 -13327184.904 18068951.899 10 0 59424 35100.00000 0 11392744.720 -11075598.570 19942614.529 10 0 59424 36000.00000 0 10843578.296 -8574672.382 21428523.736 10 0 59424 36900.00000 0 10471283.499 -5883186.623 22497921.084 10 0 59424 37800.00000 0 10302293.068 -3066968.384 23130162.723 10 0 59424 38700.00000 0 10351004.151 -196383.501 23313109.304 10 0 59424 39600.00000 0 10619142.975 2656354.825 23043350.077 10 0 59424 40500.00000 0 11095680.168 5419949.330 22326257.906 10 0 59424 41400.00000 0 11757299.344 8026739.966 21175875.006 10 0 59424 42300.00000 0 12569398.479 10415271.139 19614632.333 10 0 59424 43200.00000 0 13487581.429 12532599.715 17672908.501 10 0 59424 44100.00000 0 14459576.613 14336249.451 15388436.954 10 0 59424 45000.00000 0 15427502.160 15795732.169 12805572.894 10 0 59424 45900.00000 0 16330382.449 16893574.085 9974433.938 10 0 59424 46800.00000 0 17106810.530 17625806.125 6949930.836 10 0 59424 47700.00000 0 17697644.785 18001899.240 3790706.701 10 0 59424 48600.00000 0 18048626.734 18044148.736 558004.918 10 0 59424 49500.00000 0 18112810.089 17786534.509 -2685512.739 10 0 59424 50400.00000 0 17852698.942 17273105.749 -5876975.126 10 0 59424 51300.00000 0 17242005.052 16555958.471 -8954514.800 10 0 59424 52200.00000 0 16266949.928 15692891.144 -11858461.990 10 0 59424 53100.00000 0 14927056.374 14744836.974 -14532496.523 10 0 59424 54000.00000 0 13235395.311 13773180.712 -16924735.810 10 0 59424 54900.00000 0 11218276.244 12837072.551 -18988738.167 10 0 59424 55800.00000 0 8914392.898 11990851.767 -20684402.301 10 0 59424 56700.00000 0 6373458.004 11281688.175 -21978745.916 10 0 59424 57600.00000 0 3654382.419 10747540.355 -22846548.559 10 0 59424 58500.00000 0 823072.666 10415516.512 -23270846.284 10 0 59424 59400.00000 0 -2050063.115 10300707.117 -23243268.435 10 0 59424 60300.00000 0 -4892798.723 10405538.864 -22764209.653 10 0 59424 61200.00000 0 -7633852.547 10719677.868 -21842833.121 10 0 59424 62100.00000 0 -10205615.497 11220487.065 -20496904.172 10 0 59424 63000.00000 0 -12546731.407 11874019.569 -18752456.459 10 0 59424 63900.00000 0 -14604422.717 12636507.105 -16643296.117 10 0 59424 64800.00000 0 -16336464.598 13456281.584 -14210352.525 10 0 59424 65700.00000 0 -17712724.983 14276049.263 -11500887.388 10 0 59424 66600.00000 0 -18716205.858 15035421.622 -8567577.007 10 0 59424 67500.00000 0 -19343542.095 15673595.689 -5467485.351 10 0 59424 68400.00000 0 -19604936.973 16132069.808 -2260948.076 10 0 59424 69300.00000 0 -19523537.385 16357278.878 989610.089 10 0 59424 70200.00000 0 -19134275.768 16303036.260 4220900.664 10 0 59424 71100.00000 0 -18482228.545 15932677.607 7370014.425 10 0 59424 72000.00000 0 -17620561.628 15220814.598 10375656.519 10 0 59424 72900.00000 0 -16608151.157 14154623.233 13179348.448 10 0 59424 73800.00000 0 -15506981.353 12734611.304 15726572.504 10 0 59424 74700.00000 0 -14379430.707 10974832.080 17967835.571 10 0 59424 75600.00000 0 -13285562.011 8902534.745 19859631.346 10 0 59424 76500.00000 0 -12280531.169 6557266.107 21365282.312 10 0 59424 77400.00000 0 -11412224.162 3989461.217 22455645.547 10 0 59424 78300.00000 0 -10719221.359 1258581.810 23109669.465 10 0 59424 79200.00000 0 -10229174.096 -1569119.786 23314791.655 10 0 59424 80100.00000 0 -9957660.761 -4423118.270 23067171.167 10 0 59424 81000.00000 0 -9907569.183 -7231310.184 22371751.801 10 0 59424 81900.00000 0 -10069029.973 -9922774.627 21242156.068 10 0 59424 82800.00000 0 -10419902.403 -12430486.004 19700412.600 10 0 59424 83700.00000 0 -10926791.328 -14693867.343 17776522.755 10 0 59424 84600.00000 0 -11546551.638 -16661079.444 15507875.002 10 0 59424 85500.00000 0 -12228216.481 -18290952.056 12938518.453 10 0 59425 0.00000 0 -12915267.938 -19554478.297 10118309.474 10 0 59425 900.00000 0 -13548154.451 -20435811.338 7101947.181 10 0 59425 1800.00000 0 -14066949.619 -20932723.706 3947917.141 10 0 59425 2700.00000 0 -14414039.766 -21056510.057 717362.086 10 0 59425 3600.00000 0 -14536728.265 -20831339.970 -2527097.958 10 0 59425 4500.00000 0 -14389646.287 -20293087.508 -5722573.879 10 0 59425 5400.00000 0 -13936868.732 -19487687.710 -8807120.901 10 0 59425 6300.00000 0 -13153645.838 -18469089.120 -11720934.047 10 0 59425 7200.00000 0 -12027677.126 -17296888.361 -14407502.680 10 0 59425 8100.00000 0 -10559873.229 -16033745.953 -16814702.146 10 0 59425 9000.00000 0 -8764572.417 -14742691.566 -18895801.739 10 0 59425 9900.00000 0 -6669201.316 -13484431.483 -20610369.712 10 0 59425 10800.00000 0 -4313392.250 -12314770.836 -21925058.204 10 0 59425 11700.00000 0 -1747592.162 -11282258.433 -22814253.070 10 0 59425 12600.00000 0 968780.762 -10426152.733 -23260576.068 10 0 59425 13500.00000 0 3769557.945 -9774794.205 -23255229.596 10 0 59425 14400.00000 0 6584328.089 -9344452.468 -22798176.898 10 0 59425 15300.00000 0 9341128.856 -9138696.953 -21898153.633 10 0 59425 16200.00000 0 11969211.778 -9148317.984 -20572509.777 10 0 59425 17100.00000 0 14401766.254 -9351802.219 -18846883.867 10 0 59425 18000.00000 0 16578489.535 -9716343.089 -16754714.906 10 0 59425 18900.00000 0 18447895.718 -10199344.233 -14336600.356 10 0 59425 19800.00000 0 19969267.201 -10750352.855 -11639511.806 10 0 59425 20700.00000 0 21114166.590 -11313341.482 -8715883.053 10 0 59425 21600.00000 0 21867445.468 -11829241.374 -5622588.073 10 0 59425 22500.00000 0 22227707.437 -12238619.744 -2419828.922 10 0 59425 23400.00000 0 22207205.952 -12484386.475 830044.116 10 0 59425 24300.00000 0 21831181.593 -12514414.407 4063756.299 10 0 59425 25200.00000 0 21136667.340 -12283960.828 7218351.101 10 0 59425 26100.00000 0 20170813.199 -11757786.161 10232426.282 10 0 59425 27000.00000 0 18988802.065 -10911878.903 13047338.046 10 0 59425 27900.00000 0 17651446.066 -9734712.695 15608348.858 10 0 59425 28800.00000 0 16222566.037 -8227981.618 17865695.728 10 0 59425 29700.00000 0 14766265.682 -6406782.106 19775557.881 10 0 59425 30600.00000 0 13344215.955 -4299233.375 21300905.058 10 0 59425 31500.00000 0 12013064.296 -1945552.197 22412210.337 10 0 59425 32400.00000 0 10822077.441 603379.434 23088014.452 10 0 59425 33300.00000 0 9811116.191 3287893.962 23315331.591 10 0 59425 34200.00000 0 9009026.101 6041787.025 23089889.909 10 0 59425 35100.00000 0 8432510.231 8794841.982 22416203.116 10 0 59425 36000.00000 0 8085529.679 11475525.777 21307472.695 10 0 59425 36900.00000 0 7959255.470 14013744.740 19785323.379 10 0 59425 37800.00000 0 8032572.329 16343546.785 17879377.479 10 0 59425 38700.00000 0 8273111.884 18405658.835 15626676.503 10 0 59425 39600.00000 0 8638770.905 20149755.130 13070961.330 10 0 59425 40500.00000 0 9079650.046 21536363.295 10261824.652 10 0 59425 41400.00000 0 9540331.085 22538330.103 7253751.779 10 0 59425 42300.00000 0 9962396.644 23141786.855 4105068.075 10 0 59425 43200.00000 0 10287086.210 23346575.247 876813.013 10 0 59425 44100.00000 0 10457976.616 23166116.750 -2368437.754 10 0 59425 45000.00000 0 10423574.065 22626731.668 -5567779.724 10 0 59425 45900.00000 0 10139708.414 21766436.897 -8659193.252 10 0 59425 46800.00000 0 9571628.630 20633272.969 -11582740.442 10 0 59425 47700.00000 0 8695710.749 19283230.575 -14281722.255 10 0 59425 48600.00000 0 7500705.735 17777863.313 -16703773.798 10 0 59425 49500.00000 0 5988473.722 16181686.368 -18801876.926 10 0 59425 50400.00000 0 4174172.485 14559469.733 -20535270.818 10 0 59425 51300.00000 0 2085890.551 12973538.829 -21870243.228 10 0 59425 52200.00000 0 -236261.632 11481195.057 -22780787.320 10 0 59425 53100.00000 0 -2741566.464 10132363.842 -23249111.371 10 0 59425 54000.00000 0 -5370563.004 8967568.313 -23265991.419 10 0 59425 54900.00000 0 -8057284.095 8016313.238 -22830959.624 10 0 59425 55800.00000 0 -10731775.363 7295946.945 -21952324.101 10 0 59425 56700.00000 0 -13322792.656 6811049.059 -20647019.054 10 0 59425 57600.00000 0 -15760566.656 6553370.001 -18940287.100 10 0 59425 58500.00000 0 -17979520.035 6502325.153 -16865198.908 10 0 59425 59400.00000 0 -19920824.059 6626023.154 -14462018.471 10 0 59425 60300.00000 0 -21534687.742 6882785.202 -11777425.435 10 0 59425 61200.00000 0 -22782283.338 7223091.199 -8863609.041 10 0 59425 62100.00000 0 -23637227.018 7591870.198 -5777251.062 10 0 59425 63000.00000 0 -24086552.101 7931037.580 -2578417.616 10 0 59425 63900.00000 0 -24131133.555 8182170.595 670617.907 10 0 59425 64800.00000 0 -23785545.853 8289207.649 3906597.032 10 0 59425 65700.00000 0 -23077360.433 8201055.534 7066518.565 10 0 59425 66600.00000 0 -22045912.965 7873992.655 10088875.575 10 0 59425 67500.00000 0 -20740593.324 7273765.050 12914861.712 10 0 59425 68400.00000 0 -19218731.440 6377285.226 15489522.337 10 0 59425 69300.00000 0 -17543169.317 5173861.028 17762827.213 10 0 59425 70200.00000 0 -15779622.517 3665901.901 19690643.552 10 0 59425 71100.00000 0 -13993942.910 1869072.260 21235590.560 10 0 59425 72000.00000 0 -12249398.211 -188114.756 22367759.208 10 0 59425 72900.00000 0 -10604082.481 -2465246.305 23065284.068 10 0 59425 73800.00000 0 -9108565.656 -4911462.094 23314757.070 10 0 59425 74700.00000 0 -7803879.667 -7467349.304 23111476.194 10 0 59425 75600.00000 0 -6719924.100 -10067201.449 22459525.387 10 0 59425 76500.00000 0 -5874356.488 -12641547.554 21371685.035 10 0 59425 77400.00000 0 -5272011.918 -15119846.874 19869175.498 10 0 59425 78300.00000 0 -4904874.452 -17433237.903 17981239.167 10 0 59425 79200.00000 0 -4752599.865 -19517228.229 15744569.345 10 0 59425 80100.00000 0 -4783566.327 -21314214.258 13202597.061 10 0 59425 81000.00000 0 -4956407.735 -22775727.008 10404649.450 10 0 59425 81900.00000 0 -5221964.374 -23864311.448 7404995.653 10 0 59425 82800.00000 0 -5525568.311 -24554961.934 4261798.412 10 0 59425 83700.00000 0 -5809566.948 -24836054.718 1035991.249 10 0 59425 84600.00000 0 -6015978.281 -24709739.266 -2209897.414 10 0 59425 85500.00000 0 -6089165.882 -24191772.556 -5412950.696 99